This is the latest recevied weather packets stored in our database for station/object 1NW106. If no packets are shown the sender has not sent any weather packets the latest 10 day(s).
| Time | Temp. | Humidity | Pressure | Rain* | Wind** | Luminosity | Snow |
|---|---|---|---|---|---|---|---|
| 1787486965 | 24.44° C | 99% | 1002.9 hPa | 13.21 mm | - | - | - |
| 1787486365 | 24.44° C | 99% | 1002.8 hPa | 13.21 mm | - | - | - |
| 1787485765 | 24.44° C | 99% | 1002.8 hPa | 13.21 mm | - | - | - |
| 1787485165 | 24.44° C | 99% | 1002.8 hPa | 13.21 mm | - | - | - |
| 1787484565 | 24.44° C | 99% | 1002.9 hPa | 13.21 mm | - | - | - |
| 1787483965 | 24.44° C | 99% | 1003.1 hPa | 13.21 mm | - | - | - |
| 1787483365 | 24.44° C | 99% | 1003 hPa | 13.21 mm | - | - | - |
| 1787482765 | 24.44° C | 99% | 1002.7 hPa | 13.21 mm | - | - | - |
| 1787481565 | 25° C | 99% | 1002.8 hPa | 12.95 mm | - | - | - |
| 1787480965 | 25° C | 99% | 1003.4 hPa | 11.68 mm | - | - | - |
| 1787480365 | 25.56° C | 99% | 1003.9 hPa | 5.84 mm | - | - | - |
| 1787479765 | 26.11° C | 99% | 1004 hPa | 3.05 mm | - | - | - |
| 1787479165 | 26.67° C | 99% | 1003.4 hPa | 2.54 mm | - | - | - |
| 1787478565 | 26.67° C | 99% | 1003 hPa | 2.54 mm | - | - | - |
| 1787477965 | 27.22° C | 99% | 1002.9 hPa | 2.54 mm | - | - | - |
| 1787477365 | 26.67° C | 99% | 1002.7 hPa | 2.54 mm | - | - | - |
| 1787476765 | 26.67° C | 99% | 1002.6 hPa | 2.54 mm | - | - | - |
| 1787476165 | 26.11° C | 99% | 1003.1 hPa | 2.54 mm | - | - | - |
| 1787475565 | 26.11° C | 99% | 1003.2 hPa | 2.54 mm | - | - | - |
| 1787474965 | 26.11° C | 99% | 1003.2 hPa | 2.54 mm | - | - | - |
| 1787474365 | 26.11° C | 99% | 1003.4 hPa | 2.54 mm | - | - | - |
| 1787473765 | 26.67° C | 99% | 1003.8 hPa | 1.78 mm | - | - | - |
| 1787473165 | 26.67° C | 99% | 1004.1 hPa | 1.78 mm | - | - | - |
| 1787472565 | 27.22° C | 99% | 1005.3 hPa | 1.27 mm | - | - | - |
| 1787471966 | 27.78° C | 93% | 1006.7 hPa | 0 mm | - | - | - |
* Rain latest hour (hover to see other rain measurements)
** Current wind speed in m/s (hover to see current wind gust speed)